Regional Weather Roundup
Issued by NWS

Home | Current Version | Previous Version | Graphics & Text | Print | Product List | Glossary On
Versions: 1 2 3 4 5 6 7 8 9 10 11 12 13 14 15 16 17 18 19 20 21 22 23 24 25 26 27 28 29 30 31 32 33 34 35 36 37 38 39 40 41 42 43 44 45 46 47 48 49 50
000
ASUS43 KLOT 121158
RWRIL

ILLINOIS REGIONAL WEATHER ROUNDUP
NATIONAL WEATHER SERVICE CHICAGO/ROMEOVILLE IL
700 AM CDT SAT JUL 12 2014

NOTE: "FAIR" INDICATES FEW OR NO CLOUDS BELOW 12,000 FEET WITH NO
SIGNIFICANT WEATHER AND/OR OBSTRUCTIONS TO VISIBILITY.

* THESE STATIONS ARE NOT UNDER NWS QUALITY CONTROL. THEY ALSO MAY NOT
  REPORT WEATHER SUCH AS PRECIPITATION OR FOG.

ILZ001-002-007-009-015-016-024-121300-
NORTHWEST ILLINOIS

CITY           SKY/WX    TMP DP  RH WIND       PRES   REMARKS
MOLINE         TSTM      73  70  90 W17G23    30.06R FOG
6HR MIN TEMP:  72; 6HR MAX TEMP:  76; 6HR PCP:  0.26;

$$

ILZ003-004-008-010-011-017-018-121300-
NORTH CENTRAL ILLINOIS

CITY           SKY/WX    TMP DP  RH WIND       PRES   REMARKS
ROCKFORD       NOT AVBL
$$

ILZ005-006-012>014-019>023-121300-
NORTHEAST ILLINOIS

CITY           SKY/WX    TMP DP  RH WIND       PRES   REMARKS
CHICAGO-OHARE  LGT RAIN  70  65  84 S5        30.04S
6HR MIN TEMP:  70; 6HR MAX TEMP:  73; 6HR PCP:  0.04;

CHICAGO-MIDWAY TSTM      71  66  84 SW7       30.06R
6HR MIN TEMP:  71; 6HR MAX TEMP:  77; 6HR PCP:  0.18;

AURORA         CLOUDY    70  65  84 E7        30.05R HAZE
6HR MIN TEMP:  70; 6HR MAX TEMP:  72; 6HR PCP:  0.01;

WAUKEGAN       PTSUNNY   71  63  75 S5        30.04R
6HR MIN TEMP:  67; 6HR MAX TEMP:  73; 6HR PCP: TRACE;

DUPAGE AIRPORT PTSUNNY   69  65  86 S8        30.04F
6HR MIN TEMP:  69; 6HR MAX TEMP:  73; 6HR PCP:  0.04;

WHEELING       CLOUDY    74  63  68 S8        30.05S
6HR MIN TEMP:  72; 6HR MAX TEMP:  75;

NORTHERLY ISL    N/A     71  63  75 S2          N/A
$$

LMZ740>746-121300-
SOUTHERN LAKE MICHIGAN

STATION/POSITION SKY/WX   TEMP    WIND        PRES    VSBY  WAVE
                          AIR SEA DIR/SP/G                  HT/PER
                          (F)     (DEG/KT/KT) (MB)    (MI)  (FT/S)
SOUTHERN BUOY              64 58  160/  8/ 10 1017.8R         1
WAUKEGAN HARBOR            67        CALM     1018.3S
HARRISON CRIB              72     170/ 15/ 15   N/A
BURNHAM HARBOR             74     200/ 10       N/A
CALUMET HARBOR             74     180/ 10/ 13 1018.5R
MICHIGAN CITY              73     140/ 11/ 15   N/A
$$

ILZ025>027-034>036-040-047-049-050-058-095>099-121300-
WEST-CENTRAL ILLINOIS

CITY           SKY/WX    TMP DP  RH WIND       PRES   REMARKS
$$

ILZ028>032-037-038-041>044-048-051>054-059>061-121300-
CENTRAL ILLINOIS

CITY           SKY/WX    TMP DP  RH WIND       PRES   REMARKS
PEORIA         NOT AVBL
SPRINGFIELD    CLOUDY    78  72  81 SW8       30.07S HX  80
6HR MIN TEMP:  77; 6HR MAX TEMP:  79;

TAYLORVILLE    NOT AVBL
$$

ILZ033-039-045-046-055>057-062-063-121300-
EAST-CENTRAL ILLINOIS

CITY           SKY/WX    TMP DP  RH WIND       PRES   REMARKS
CHAMPAIGN      LGT RAIN  71  69  93 S15       30.09F
$$

ILZ079-100>102-121300-
SOUTHWEST ILLINOIS

CITY           SKY/WX    TMP DP  RH WIND       PRES   REMARKS
ALTON          PTSUNNY   75  75 100 SW9       30.10S
CAHOKIA*       LGT RAIN  77  72  84 SW9       30.10S
$$

ILZ064>066-069>071-074>076-080>082-084>086-088>090-092>094-121300-
SOUTH-CENTRAL ILLINOIS

CITY           SKY/WX    TMP DP  RH WIND       PRES   REMARKS
CARBONDALE     CLOUDY    74  69  85 SE3       30.13S
6HR MIN TEMP:  72; 6HR MAX TEMP:  74;

MARION         CLOUDY    75  70  83 S6        30.14S
$$

ILZ067-068-072-073-078-083-087-091-121300-
SOUTHEAST ILLINOIS

CITY           SKY/WX    TMP DP  RH WIND       PRES   REMARKS
$$

ABBREVIATIONS USED IN REMARKS
   TC - TEMPERATURE IN CELSIUS
  WCI - WIND CHILL INDEX
   HX - HEAT INDEX
  VSB - VISIBILITY
$$




USA.gov is the U.S. government's official web portal to all federal, state and local government web resources and services.